カタログに戻る

PSLV DEB

LostSSO
NORAD 35335·DEBRIS·🇮🇳 India

打ち上げ Oct 22, 2001 から Satish Dhawan Space Centre

Loading…

次のパス (今後24時間)

TLE

古いSource: Space-Track

元期: Feb 3, 2012, 20:31 UTC

1 35335U 01049PT  12034.85550725  .00000176  00000-0  38114-4 0  9995
2 35335  97.7722   2.3658 0048743 221.5748 116.7175 14.68335919350593

AllMySatでPSLV DEBをリアルタイム追跡

Download on the App Store